[[{"header":{"parameterUnit":"m.s-1","parameterCategory":1,"la1":30.2991,"la2":30.254,"lo1":-89.0895,"lo2":-89.0444,"dy":0.0017,"dx":0.0017,"nx":28,"ny":28,"refTime":"2024-04-05T09:00:00:Z","depth":0,"parameterNumber":2,"parameterNumberName":"U-component_of_WINDS"},"data":[0,0,0,0,0,0,0,0,0,0,0,0,0,0,0,0,0,0,0,0,0,0,0,0,0,0,0,0,0,0,0,0,0,0,0,0,0,0,0,0,0,0,0,0,0,0,0,0,0,0,0,0,0,0,0,0,0,0,1.9859,1.986,0,1.9877,1.9877,1.9877,1.9831,1.983,1.9828,1.9827,1.9847,1.9849,1.9851,0,0,0,0,0,0,0,0,0,0,0,0,0,1.979,1.9791,1.9859,1.986,1.986,1.9877,1.9877,1.9878,1.9832,1.983,1.9828,1.9826,1.9846,1.9848,1.9851,0,0,0,0,0,0,0,0,0,0,0,0,0,1.9815,1.9792,1.9859,1.9839,1.9837,1.9877,1.9877,1.9878,1.9832,1.983,1.9828,1.9826,1.9846,1.9848,1.9851,1.9912,0,0,1.986,1.9861,0,0,0,0,0,0,0,0,1.9814,1.9818,1.9842,1.984,1.9839,1.985,1.986,1.9889,1.9832,1.9834,1.9827,1.9824,1.985,1.9852,1.986,1.9913,1.9914,1.986,1.9862,1.9863,1.9864,0,0,0,0,0,0,0,1.9812,1.9817,1.9866,1.9842,1.984,1.983,1.9831,1.9865,1.9854,1.9834,1.983,1.9833,1.9848,1.9858,1.986,1.9914,1.986,1.9862,1.9864,1.9865,2.0021,2.0023,0,0,0,0,0,0,1.9812,1.9815,1.9866,1.9867,1.982,1.9833,1.9834,1.9848,1.9853,1.9852,1.9835,1.9831,1.9854,1.9857,1.9861,1.9934,1.9863,1.9865,1.9867,2.0018,2.0021,2.0024,0,0,0,0,0,0,1.9811,1.9817,1.9865,1.984,1.9846,1.9837,1.9853,1.985,1.9859,1.9854,1.9852,1.9846,1.9852,1.9857,1.99,1.9934,1.9867,1.9869,2.0016,2.0019,2.0023,2.0081,0,0,0,0,0,0,1.9809,1.9817,1.9839,1.9841,1.9847,1.9903,1.9855,1.9852,1.9864,1.9859,1.9864,1.9863,1.9851,1.9896,1.9903,1.9937,1.9871,2.0012,2.0017,2.0022,2.0076,2.0086,2.0095,0,0,0,0,0,1.9807,1.9854,1.984,1.9847,1.9874,1.9905,1.9909,1.9893,1.9866,1.9889,1.9887,1.9863,1.993,1.9901,1.9908,1.9944,2.001,2.0016,2.0021,2.0072,2.0084,2.0095,0,0,0,0,0,0,1.9856,1.9854,1.9839,1.9888,1.9897,1.9897,1.9925,1.9906,1.9924,1.9918,1.9899,1.9901,1.9948,1.995,1.9918,2.0005,1.9966,1.9973,2.0001,2.0013,2.0023,2.0021,1.9874,0,0,0,0,0,1.9873,1.9898,1.9895,1.9939,1.9944,1.9934,1.9947,1.9935,1.9944,1.9947,1.9948,1.9958,1.9982,1.9997,2.0018,2.0076,2.0078,2.0104,2.0114,2.0122,2.0128,2.0162,2.0174,2.0042,2.0042,2.0042,0,0,1.9908,1.991,1.9926,1.9949,1.9954,1.9982,1.9938,1.9967,1.9988,1.9952,1.9993,1.9994,2.0005,2.0056,2.0079,2.0059,2.0165,2.0129,2.0135,2.0137,2.0169,2.0181,2.0192,2.0046,2.0045,2.0045,0,0,1.9985,1.9988,2.0026,2.0033,2.0043,2.0036,2.0046,2.0049,2.0049,2.009,2.0064,2.0089,2.0129,2.0138,2.0148,2.0233,2.0212,2.024,2.029,2.0323,2.0333,2.0342,2.0374,2.0386,2.0247,2.0247,2.0247,0,2.0027,2.0066,2.0048,2.0081,2.0093,2.0062,2.0101,2.0109,2.0125,2.0135,2.0113,2.0164,2.0169,2.0223,2.0244,2.0253,2.0265,2.0239,2.0333,2.0342,2.035,2.0381,2.0393,2.025,2.025,2.025,2.0249,0,2.0119,2.0146,2.0176,2.0193,2.0208,2.0244,2.0233,2.0251,2.0238,2.0235,2.0279,2.0284,2.0307,2.0318,2.0306,2.0372,2.036,2.0336,2.0296,2.0367,2.0395,2.0406,2.0255,2.0254,2.0253,2.0252,0,0,2.0226,2.0234,2.0246,2.0254,2.0264,2.0285,2.0321,2.0343,2.036,2.0373,2.0404,2.044,2.0418,2.043,2.0418,2.0447,2.0516,2.0419,2.0419,2.0439,2.0593,2.0612,2.0626,2.0503,2.0505,2.0507,2.0593,0,2.0304,2.0365,2.0351,2.0412,2.0438,2.0411,2.0442,2.0452,2.0451,2.0475,2.0473,2.05,2.0468,2.0475,2.0502,2.0502,2.0547,2.0496,2.0533,2.0535,2.0532,2.064,2.066,2.0741,2.0603,2.0605,2.0607,0,2.0402,2.042,2.0483,2.049,2.0501,2.0529,2.055,2.0573,2.0585,2.0582,2.0596,2.058,2.0618,2.0578,2.0631,2.0596,2.0611,2.0614,2.0616,2.062,2.0575,2.0648,2.0766,2.0779,2.0624,2.0622,2.0621,0,2.0477,2.0516,2.056,2.0567,2.0576,2.0598,2.0603,2.0612,2.0628,2.0647,2.0657,2.068,2.0693,2.0712,2.0703,2.0674,2.0759,2.0717,2.0759,2.076,2.0778,2.0777,2.0902,2.0786,2.0786,2.0786,2.0785,0,2.0566,2.0606,2.0594,2.062,2.0666,2.0651,2.0696,2.0698,2.0708,2.0736,2.0713,2.074,2.0727,2.0754,2.0747,2.0794,2.0799,2.0799,2.0797,2.0802,2.0802,2.0812,2.0807,2.0789,2.0788,2.0787,2.0787,0,2.0657,2.065,2.0696,2.0701,2.0704,2.0737,2.0743,2.0769,2.0766,2.0803,2.081,2.0807,2.0838,2.0831,2.0864,2.086,2.0919,2.0909,2.0915,2.0913,2.0956,2.0953,2.1092,2.111,2.0981,2.0983,2.0984,0,2.0714,2.0745,2.0754,2.0771,2.0778,2.0806,2.0822,2.0809,2.0827,2.0845,2.0869,2.0898,2.092,2.0971,2.0973,2.0999,2.0991,2.1038,2.0995,2.1,2.0994,2.0993,2.0997,2.1047,2.1048,2.1049,2.105,0,2.0818,2.0814,2.0837,2.086,2.088,2.0897,2.0913,2.0929,2.0918,2.0939,2.097,2.0988,2.1023,2.1053,2.1078,2.1085,2.1067,2.1064,2.1075,2.1081,2.1084,2.1085,2.094,2.1061,2.106,2.1059,2.1058,2.1058,2.0895,2.0922,2.0934,2.0961,2.0972,2.0988,2.1013,2.1015,2.104,2.1068,2.1059,2.1095,2.111,2.1141,2.1151,2.1181,2.1163,2.1179,2.1184,2.1188,2.1194,2.1079,2.1185,2.1185,2.1184,2.1184,2.1184,0,2.1,2.1006,2.1032,2.1055,2.1077,2.1058,2.1075,2.1096,2.1128,2.1142,2.1165,2.1202,2.1232,2.1236,2.1265,2.1288,2.1281,2.1296,2.1295,2.1297,2.1207,2.1195,2.1302,2.1302,2.1302,2.1302,2.1302,2.1302,2.1056,2.1102,2.1099,2.1151,2.1157,2.1192,2.1204,2.122,2.1231,2.1274,2.1298,2.1301,2.1312,2.1342,2.1369,2.137,2.1382,2.1401,2.1399,2.1315,2.1303,2.1292,2.1281,2.1404,2.1404,2.1487,2.1488,2.1488]},{"header":{"parameterUnit":"m.s-1","parameterCategory":1,"la1":30.2991,"la2":30.254,"lo1":-89.0895,"lo2":-89.0444,"dy":0.0017,"dx":0.0017,"nx":28,"ny":28,"refTime":"2024-04-05T09:00:00:Z","depth":0,"parameterNumber":3,"parameterNumberName":"V-component_of_WINDS"},"data":[0,0,0,0,0,0,0,0,0,0,0,0,0,0,0,0,0,0,0,0,0,0,0,0,0,0,0,0,0,0,0,0,0,0,0,0,0,0,0,0,0,0,0,0,0,0,0,0,0,0,0,0,0,0,0,0,0,0,-3.0038,-3.0039,0,-3.013,-3.0131,-3.0132,-3.0161,-3.016,-3.016,-3.0159,-3.0251,-3.0253,-3.0256,0,0,0,0,0,0,0,0,0,0,0,0,0,-2.9886,-2.9888,-3.0038,-3.0039,-3.004,-3.013,-3.0131,-3.0132,-3.0161,-3.016,-3.016,-3.0159,-3.025,-3.0253,-3.0256,0,0,0,0,0,0,0,0,0,0,0,0,0,-2.9962,-2.9889,-3.0038,-3.0065,-3.0069,-3.013,-3.0131,-3.0133,-3.0161,-3.016,-3.0159,-3.0159,-3.0249,-3.0253,-3.0257,-3.0296,0,0,-3.027,-3.0272,0,0,0,0,0,0,0,0,-2.9958,-2.9967,-3.006,-3.0063,-3.0067,-3.0133,-3.0111,-3.0188,-3.0161,-3.0126,-3.0159,-3.0158,-3.0212,-3.0219,-3.0238,-3.0301,-3.0305,-3.027,-3.0273,-3.0275,-3.0276,0,0,0,0,0,0,0,-2.9952,-2.9964,-3.0074,-3.0061,-3.0066,-3.0073,-3.0083,-3.0126,-3.0171,-3.0129,-3.0131,-3.0142,-3.0214,-3.0234,-3.024,-3.0306,-3.027,-3.0274,-3.0277,-3.0278,-3.0408,-3.0409,0,0,0,0,0,0,-2.9943,-2.9959,-3.0071,-3.0077,-3.001,-3.0076,-3.0087,-3.0113,-3.0171,-3.0179,-3.0142,-3.0143,-3.0227,-3.0235,-3.0243,-3.0295,-3.0275,-3.0279,-3.0281,-3.0407,-3.0408,-3.0409,0,0,0,0,0,0,-2.9939,-2.9952,-3.0068,-3.0019,-3.0034,-3.0079,-3.0108,-3.0115,-3.0135,-3.0181,-3.0189,-3.0154,-3.0226,-3.0237,-3.0284,-3.0299,-3.0281,-3.0284,-3.0406,-3.0408,-3.0409,-3.0398,0,0,0,0,0,0,-2.9935,-2.9951,-2.9966,-3.0019,-3.0037,-3.0107,-3.0108,-3.0117,-3.0142,-3.0144,-3.0194,-3.0202,-3.0227,-3.0277,-3.0288,-3.0304,-3.0288,-3.0405,-3.0407,-3.0408,-3.0397,-3.0399,-3.04,0,0,0,0,0,-2.9929,-2.9959,-2.9967,-2.9981,-3.0057,-3.0108,-3.0118,-3.0146,-3.0143,-3.016,-3.019,-3.0201,-3.0295,-3.0282,-3.0294,-3.0312,-3.0404,-3.0406,-3.0408,-3.0396,-3.0398,-3.04,0,0,0,0,0,0,-2.9905,-2.9966,-2.9976,-3.0023,-3.006,-3.0112,-3.0133,-3.0147,-3.0184,-3.0184,-3.0217,-3.0228,-3.0273,-3.0297,-3.0281,-3.0354,-3.035,-3.0355,-3.0337,-3.0339,-3.0341,-3.0334,-3.0291,0,0,0,0,0,-2.9906,-2.9942,-2.9993,-3.003,-3.0048,-3.0088,-3.011,-3.013,-3.0169,-3.0184,-3.0217,-3.0254,-3.0293,-3.0317,-3.0355,-3.0401,-3.0413,-3.0419,-3.042,-3.0421,-3.0425,-3.0453,-3.0457,-3.0416,-3.0416,-3.0416,0,0,-2.9906,-2.9944,-2.9965,-3.0026,-3.0057,-3.0094,-3.01,-3.0139,-3.0167,-3.019,-3.0236,-3.0262,-3.0306,-3.0352,-3.0375,-3.0374,-3.0439,-3.0424,-3.0424,-3.0428,-3.0456,-3.0459,-3.0463,-3.0417,-3.0417,-3.0417,0,0,-2.9927,-2.9959,-2.9994,-3.0026,-3.0073,-3.0099,-3.0108,-3.0159,-3.0177,-3.0225,-3.0243,-3.0277,-3.0341,-3.0372,-3.0396,-3.0432,-3.0443,-3.0443,-3.045,-3.0477,-3.048,-3.0483,-3.0497,-3.0502,-3.0446,-3.0446,-3.0446,0,-2.9922,-2.9979,-3.001,-3.0049,-3.0076,-3.01,-3.0136,-3.0165,-3.0221,-3.0239,-3.0238,-3.0322,-3.0352,-3.0408,-3.0417,-3.0435,-3.0446,-3.0437,-3.0478,-3.0481,-3.0484,-3.0498,-3.0503,-3.0446,-3.0446,-3.0446,-3.0446,0,-2.9971,-3.0011,-3.0034,-3.009,-3.0119,-3.0156,-3.0193,-3.0219,-3.0236,-3.0262,-3.0311,-3.0349,-3.0396,-3.0411,-3.0426,-3.0469,-3.0467,-3.0471,-3.0468,-3.0487,-3.0501,-3.0506,-3.0445,-3.0445,-3.0446,-3.0446,0,0,-2.9978,-3.0053,-3.0061,-3.0088,-3.0143,-3.0174,-3.0212,-3.0259,-3.0282,-3.032,-3.0354,-3.0409,-3.0414,-3.0441,-3.0461,-3.0485,-3.0512,-3.0486,-3.0488,-3.0491,-3.0563,-3.056,-3.0566,-3.052,-3.0521,-3.0522,-3.056,0,-3.0007,-3.0078,-3.0108,-3.0165,-3.0203,-3.0227,-3.0261,-3.0298,-3.0325,-3.036,-3.0389,-3.0429,-3.0431,-3.0448,-3.0473,-3.0504,-3.0527,-3.0501,-3.0552,-3.0554,-3.0541,-3.0572,-3.0569,-3.0603,-3.0565,-3.0566,-3.0566,0,-3.005,-3.0091,-3.0152,-3.0205,-3.0221,-3.0251,-3.0298,-3.0332,-3.0375,-3.0393,-3.0424,-3.0444,-3.0485,-3.0479,-3.0538,-3.052,-3.0542,-3.0561,-3.0563,-3.0569,-3.0562,-3.058,-3.0614,-3.0619,-3.0575,-3.0574,-3.0573,0,-3.0051,-3.0121,-3.0167,-3.0189,-3.0251,-3.0272,-3.0298,-3.0341,-3.0368,-3.0409,-3.0427,-3.0471,-3.0496,-3.053,-3.0561,-3.0553,-3.0617,-3.0613,-3.0633,-3.0632,-3.0645,-3.0644,-3.0683,-3.0658,-3.0658,-3.0658,-3.0658,0,-3.008,-3.0117,-3.0169,-3.0197,-3.024,-3.0274,-3.0315,-3.0343,-3.0381,-3.0416,-3.0439,-3.0471,-3.0509,-3.0546,-3.0571,-3.0616,-3.0626,-3.0642,-3.0648,-3.0641,-3.0639,-3.0656,-3.0655,-3.0659,-3.0659,-3.0659,-3.0659,0,-3.0088,-3.0124,-3.0177,-3.0232,-3.0247,-3.0276,-3.0323,-3.0352,-3.038,-3.0423,-3.0435,-3.0479,-3.0524,-3.0558,-3.0616,-3.0632,-3.0681,-3.0687,-3.0667,-3.067,-3.0689,-3.0687,-3.0742,-3.0751,-3.0718,-3.0719,-3.0719,0,-3.0105,-3.0134,-3.0193,-3.0219,-3.0246,-3.0286,-3.0315,-3.035,-3.0378,-3.0431,-3.0454,-3.0501,-3.054,-3.061,-3.0647,-3.0692,-3.07,-3.0716,-3.0706,-3.0699,-3.0702,-3.07,-3.0704,-3.0717,-3.0717,-3.0717,-3.0717,0,-3.0131,-3.0148,-3.0189,-3.0237,-3.0271,-3.0309,-3.0348,-3.0368,-3.041,-3.0441,-3.0488,-3.0519,-3.0579,-3.0626,-3.0675,-3.0702,-3.0717,-3.072,-3.0728,-3.072,-3.0708,-3.0716,-3.0671,-3.0719,-3.0719,-3.0719,-3.0719,-3.0718,-3.0145,-3.0173,-3.022,-3.0265,-3.0299,-3.0335,-3.0366,-3.0399,-3.0439,-3.0491,-3.0509,-3.0558,-3.0602,-3.067,-3.0698,-3.0736,-3.0737,-3.0747,-3.0749,-3.0752,-3.0752,-3.0702,-3.0745,-3.0745,-3.0745,-3.0745,-3.0745,0,-3.0174,-3.0206,-3.0247,-3.0302,-3.0338,-3.0351,-3.0395,-3.0424,-3.0467,-3.0507,-3.0546,-3.0601,-3.0647,-3.0688,-3.0736,-3.0759,-3.0767,-3.077,-3.0769,-3.0776,-3.0748,-3.0738,-3.0763,-3.0763,-3.0763,-3.0763,-3.0763,-3.0763,-3.0193,-3.0242,-3.0265,-3.0331,-3.0362,-3.0411,-3.0436,-3.047,-3.0503,-3.0563,-3.0602,-3.0629,-3.067,-3.0721,-3.0764,-3.0775,-3.0792,-3.0793,-3.0806,-3.0779,-3.0777,-3.0775,-3.0766,-3.0797,-3.0797,-3.0831,-3.0831,-3.0831]}]]